CALSPHERE 1

Last updated on Fri Sep 11 2026 00:03:40 GMT+0000 (Coordinated Universal Time)

1 00900U 64063C 26253.50200881 .00000435 00000+0 43283-3 0 9994 2 00900 90.2174 73.7468 0027140 37.7918 48.1425 13.76700264 83166
UTC large
Height (km)
Speed (km/s)
/
Latitude / Longitude
Inclination (degrees)
Orbital Period (minutes)
Azimuth
Elevation
Range (km)
Doppler Factor

Next 0 passes for location: London (51.5072 / 0.1276)

No passes found over London.
CALSPHERE 1